owner,sensor,date,latitude,longitude,vertical_datum,wind_speed,wind_to_direction,wind_speed_of_gust,qcFlag 
COMPS,ioos:station:USF.COMPS:FHP:1,2014-02-01T00:00:00Z,28.1530,-82.8010,10.0,4.97,75.2,6.37,'1111122,1111122,1111122' 
COMPS,ioos:station:USF.COMPS:FHP:1,2014-02-01T00:06:00Z,28.1530,-82.8010,10.0,5.23,75.57,6.17,'1111122,1111122,1111122' 
COMPS,ioos:station:USF.COMPS:FHP:1,2014-02-01T00:12:00Z,28.1530,-82.8010,10.0,4.73,76.42,5.97,'1111122,1111122,1111122' 
COMPS,ioos:station:USF.COMPS:FHP:1,2014-02-01T00:18:00Z,28.1530,-82.8010,10.0,4.6,77.23,6.17,'1111122,1111122,1111122' 
COMPS,ioos:station:USF.COMPS:FHP:1,2014-02-01T00:24:00Z,28.1530,-82.8010,10.0,3.52,71.79,4.7,'1111122,1111122,1111122' 
COMPS,ioos:station:USF.COMPS:FHP:1,2014-02-01T00:30:00Z,28.1530,-82.8010,10.0,2.5,64.17,3.52,'1111122,1111122,1111122' 
COMPS,ioos:station:USF.COMPS:FHP:1,2014-02-01T00:36:00Z,28.1530,-82.8010,10.0,1.53,51.79,2.74,'1111122,1111122,1111122' 
COMPS,ioos:station:USF.COMPS:FHP:1,2014-02-01T00:42:00Z,28.1530,-82.8010,10.0,1.15,55.18,1.86,'1111122,1111122,1111122' 
COMPS,ioos:station:USF.COMPS:FHP:1,2014-02-01T00:48:00Z,28.1530,-82.8010,10.0,2.34,63.11,3.92,'1111122,1111122,1111122' 
COMPS,ioos:station:USF.COMPS:FHP:1,2014-02-01T00:54:00Z,28.1530,-82.8010,10.0,2.75,72.3,3.62,'1111122,1111122,1111122' 
COMPS,ioos:station:USF.COMPS:FHP:1,2014-02-01T01:00:00Z,28.1530,-82.8010,10.0,3.0,71.84,3.92,'1111122,1111122,1111122' 
COMPS,ioos:station:USF.COMPS:FHP:1,2014-02-01T01:06:00Z,28.1530,-82.8010,10.0,3.11,68.83,4.5,'1111122,1111122,1111122' 
COMPS,ioos:station:USF.COMPS:FHP:1,2014-02-01T01:12:00Z,28.1530,-82.8010,10.0,2.75,73.15,3.82,'1111122,1111122,1111122' 
COMPS,ioos:station:USF.COMPS:FHP:1,2014-02-01T01:18:00Z,28.1530,-82.8010,10.0,2.67,79.85,3.43,'1111122,1111122,1111122' 
COMPS,ioos:station:USF.COMPS:FHP:1,2014-02-01T01:24:00Z,28.1530,-82.8010,10.0,2.36,96.55,3.23,'1111122,1111122,1111122' 
COMPS,ioos:station:USF.COMPS:FHP:1,2014-02-01T01:30:00Z,28.1530,-82.8010,10.0,3.13,96.38,4.9,'1111122,1111122,1111122' 
COMPS,ioos:station:USF.COMPS:FHP:1,2014-02-01T01:36:00Z,28.1530,-82.8010,10.0,3.79,87.39,5.19,'1111122,1111122,1111122' 
COMPS,ioos:station:USF.COMPS:FHP:1,2014-02-01T01:42:00Z,28.1530,-82.8010,10.0,3.7,89.22,5.39,'1111122,1111122,1111122' 
COMPS,ioos:station:USF.COMPS:FHP:1,2014-02-01T01:48:00Z,28.1530,-82.8010,10.0,4.53,87.74,6.46,'1111122,1111122,1111122' 
COMPS,ioos:station:USF.COMPS:FHP:1,2014-02-01T01:54:00Z,28.1530,-82.8010,10.0,5.03,83.71,6.37,'1111122,1111122,1111122' 
COMPS,ioos:station:USF.COMPS:FHP:1,2014-02-01T02:00:00Z,28.1530,-82.8010,10.0,4.95,86.01,6.27,'1111122,1111122,1111122' 
COMPS,ioos:station:USF.COMPS:FHP:1,2014-02-01T02:06:00Z,28.1530,-82.8010,10.0,5.18,83.21,7.15,'1111122,1111122,1111122' 
COMPS,ioos:station:USF.COMPS:FHP:1,2014-02-01T02:12:00Z,28.1530,-82.8010,10.0,5.16,83.19,6.76,'1111122,1111122,1111122' 
COMPS,ioos:station:USF.COMPS:FHP:1,2014-02-01T02:18:00Z,28.1530,-82.8010,10.0,5.15,86.44,6.56,'1111122,1111122,1111122' 
COMPS,ioos:station:USF.COMPS:FHP:1,2014-02-01T02:24:00Z,28.1530,-82.8010,10.0,5.29,87.25,6.17,'1111122,1111122,1111122' 
COMPS,ioos:station:USF.COMPS:FHP:1,2014-02-01T02:30:00Z,28.1530,-82.8010,10.0,5.39,90.82,6.56,'1111122,1111122,1111122' 
COMPS,ioos:station:USF.COMPS:FHP:1,2014-02-01T02:36:00Z,28.1530,-82.8010,10.0,5.65,91.17,6.56,'1111122,1111122,1111122' 
COMPS,ioos:station:USF.COMPS:FHP:1,2014-02-01T02:42:00Z,28.1530,-82.8010,10.0,6.02,90.8,6.95,'1111122,1111122,1111122' 
COMPS,ioos:station:USF.COMPS:FHP:1,2014-02-01T02:48:00Z,28.1530,-82.8010,10.0,5.94,90.57,7.64,'1111122,1111122,1111122' 
COMPS,ioos:station:USF.COMPS:FHP:1,2014-02-01T02:54:00Z,28.1530,-82.8010,10.0,5.98,91.68,7.25,'1111122,1111122,1111122' 
COMPS,ioos:station:USF.COMPS:FHP:1,2014-02-01T03:00:00Z,28.1530,-82.8010,10.0,6.08,91.09,7.44,'1111122,1111122,1111122' 
COMPS,ioos:station:USF.COMPS:FHP:1,2014-02-01T03:06:00Z,28.1530,-82.8010,10.0,5.48,95.47,6.56,'1111122,1111122,1111122' 
COMPS,ioos:station:USF.COMPS:FHP:1,2014-02-01T03:12:00Z,28.1530,-82.8010,10.0,5.05,93.16,5.97,'1111122,1111122,1111122' 
COMPS,ioos:station:USF.COMPS:FHP:1,2014-02-01T03:18:00Z,28.1530,-82.8010,10.0,5.14,92.83,6.46,'1111122,1111122,1111122' 
COMPS,ioos:station:USF.COMPS:FHP:1,2014-02-01T03:24:00Z,28.1530,-82.8010,10.0,5.63,91.21,7.44,'1111122,1111122,1111122' 
COMPS,ioos:station:USF.COMPS:FHP:1,2014-02-01T03:30:00Z,28.1530,-82.8010,10.0,5.0,89.94,6.37,'1111122,1111122,1111122' 
COMPS,ioos:station:USF.COMPS:FHP:1,2014-02-01T03:36:00Z,28.1530,-82.8010,10.0,5.02,88.97,6.37,'1111122,1111122,1111122' 
COMPS,ioos:station:USF.COMPS:FHP:1,2014-02-01T03:42:00Z,28.1530,-82.8010,10.0,4.89,90.25,6.85,'1111122,1111122,1111122' 
COMPS,ioos:station:USF.COMPS:FHP:1,2014-02-01T03:48:00Z,28.1530,-82.8010,10.0,4.33,97.11,5.48,'1111122,1111122,1111122' 
COMPS,ioos:station:USF.COMPS:FHP:1,2014-02-01T03:54:00Z,28.1530,-82.8010,10.0,4.94,95.62,6.27,'1111122,1111122,1111122' 
COMPS,ioos:station:USF.COMPS:FHP:1,2014-02-01T04:00:00Z,28.1530,-82.8010,10.0,5.41,97.3,6.85,'1111122,1111122,1111122' 
COMPS,ioos:station:USF.COMPS:FHP:1,2014-02-01T04:06:00Z,28.1530,-82.8010,10.0,5.71,97.14,9.01,'1111122,1111122,1111122' 
COMPS,ioos:station:USF.COMPS:FHP:1,2014-02-01T04:12:00Z,28.1530,-82.8010,10.0,7.03,93.6,8.42,'1111122,1111122,1111122' 
COMPS,ioos:station:USF.COMPS:FHP:1,2014-02-01T04:18:00Z,28.1530,-82.8010,10.0,6.46,100.72,7.83,'1111122,1111122,1111122' 
COMPS,ioos:station:USF.COMPS:FHP:1,2014-02-01T04:24:00Z,28.1530,-82.8010,10.0,6.56,101.52,7.74,'1111122,1111122,1111122' 
COMPS,ioos:station:USF.COMPS:FHP:1,2014-02-01T04:30:00Z,28.1530,-82.8010,10.0,6.09,101.6,7.83,'1111122,1111122,1111122' 
COMPS,ioos:station:USF.COMPS:FHP:1,2014-02-01T04:36:00Z,28.1530,-82.8010,10.0,6.11,100.1,7.83,'1111122,1111122,1111122' 
COMPS,ioos:station:USF.COMPS:FHP:1,2014-02-01T04:42:00Z,28.1530,-82.8010,10.0,6.43,95.43,7.35,'1111122,1111122,1111122' 
COMPS,ioos:station:USF.COMPS:FHP:1,2014-02-01T04:48:00Z,28.1530,-82.8010,10.0,5.85,96.58,6.76,'1111122,1111122,1111122' 
COMPS,ioos:station:USF.COMPS:FHP:1,2014-02-01T04:54:00Z,28.1530,-82.8010,10.0,5.67,97.38,6.76,'1111122,1111122,1111122' 
COMPS,ioos:station:USF.COMPS:FHP:1,2014-02-01T05:00:00Z,28.1530,-82.8010,10.0,5.81,94.7,6.56,'1111122,1111122,1111122' 
COMPS,ioos:station:USF.COMPS:FHP:1,2014-02-01T05:06:00Z,28.1530,-82.8010,10.0,5.79,96.38,7.05,'1111122,1111122,1111122' 
COMPS,ioos:station:USF.COMPS:FHP:1,2014-02-01T05:12:00Z,28.1530,-82.8010,10.0,5.4,97.57,6.66,'1111122,1111122,1111122' 
COMPS,ioos:station:USF.COMPS:FHP:1,2014-02-01T05:18:00Z,28.1530,-82.8010,10.0,5.51,94.32,6.76,'1111122,1111122,1111122' 
COMPS,ioos:station:USF.COMPS:FHP:1,2014-02-01T05:24:00Z,28.1530,-82.8010,10.0,5.85,97.51,7.54,'1111122,1111122,1111122' 
COMPS,ioos:station:USF.COMPS:FHP:1,2014-02-01T05:30:00Z,28.1530,-82.8010,10.0,5.69,97.42,6.66,'1111122,1111122,1111122' 
COMPS,ioos:station:USF.COMPS:FHP:1,2014-02-01T05:36:00Z,28.1530,-82.8010,10.0,4.89,96.4,5.97,'1111122,1111122,1111122' 
COMPS,ioos:station:USF.COMPS:FHP:1,2014-02-01T05:42:00Z,28.1530,-82.8010,10.0,5.27,100.36,6.56,'1111122,1111122,1111122' 
COMPS,ioos:station:USF.COMPS:FHP:1,2014-02-01T05:48:00Z,28.1530,-82.8010,10.0,5.0,99.59,6.17,'1111122,1111122,1111122' 
COMPS,ioos:station:USF.COMPS:FHP:1,2014-02-01T05:54:00Z,28.1530,-82.8010,10.0,5.3,100.56,6.56,'1111122,1111122,1111122' 
COMPS,ioos:station:USF.COMPS:FHP:1,2014-02-01T06:00:00Z,28.1530,-82.8010,10.0,4.47,101.06,6.07,'1111122,1111122,1111122' 
COMPS,ioos:station:USF.COMPS:FHP:1,2014-02-01T06:06:00Z,28.1530,-82.8010,10.0,3.83,105.16,5.09,'1111122,1111122,1111122' 
COMPS,ioos:station:USF.COMPS:FHP:1,2014-02-01T06:12:00Z,28.1530,-82.8010,10.0,1.32,102.61,3.82,'1111122,1111122,1111122' 
COMPS,ioos:station:USF.COMPS:FHP:1,2014-02-01T06:18:00Z,28.1530,-82.8010,10.0,0.97,248.39,2.15,'1111122,1111122,1111122' 
COMPS,ioos:station:USF.COMPS:FHP:1,2014-02-01T06:24:00Z,28.1530,-82.8010,10.0,2.17,177.19,3.82,'1111122,1111122,1111122' 
COMPS,ioos:station:USF.COMPS:FHP:1,2014-02-01T06:30:00Z,28.1530,-82.8010,10.0,3.53,140.78,4.6,'1111122,1111122,1111122' 
COMPS,ioos:station:USF.COMPS:FHP:1,2014-02-01T06:36:00Z,28.1530,-82.8010,10.0,4.54,135.08,5.19,'1111122,1111122,1111122' 
COMPS,ioos:station:USF.COMPS:FHP:1,2014-02-01T06:42:00Z,28.1530,-82.8010,10.0,5.23,135.08,6.76,'1111122,1111122,1111122' 
COMPS,ioos:station:USF.COMPS:FHP:1,2014-02-01T06:48:00Z,28.1530,-82.8010,10.0,5.68,133.5,6.46,'1111122,1111122,1111122' 
COMPS,ioos:station:USF.COMPS:FHP:1,2014-02-01T06:54:00Z,28.1530,-82.8010,10.0,6.14,132.14,6.95,'1111122,1111122,1111122' 
COMPS,ioos:station:USF.COMPS:FHP:1,2014-02-01T07:00:00Z,28.1530,-82.8010,10.0,6.26,127.32,7.93,'1111122,1111122,1111122' 
COMPS,ioos:station:USF.COMPS:FHP:1,2014-02-01T07:06:00Z,28.1530,-82.8010,10.0,7.05,126.01,8.52,'1111122,1111122,1111122' 
COMPS,ioos:station:USF.COMPS:FHP:1,2014-02-01T07:12:00Z,28.1530,-82.8010,10.0,6.7,133.06,8.03,'1111122,1111122,1111122' 
COMPS,ioos:station:USF.COMPS:FHP:1,2014-02-01T07:18:00Z,28.1530,-82.8010,10.0,7.89,122.86,9.6,'1111122,1111122,1111122' 
COMPS,ioos:station:USF.COMPS:FHP:1,2014-02-01T07:24:00Z,28.1530,-82.8010,10.0,8.11,120.91,9.5,'1111122,1111122,1111122' 
COMPS,ioos:station:USF.COMPS:FHP:1,2014-02-01T07:30:00Z,28.1530,-82.8010,10.0,7.38,122.34,9.7,'1111122,1111122,1111122' 
COMPS,ioos:station:USF.COMPS:FHP:1,2014-02-01T07:36:00Z,28.1530,-82.8010,10.0,7.03,123.6,8.42,'1111122,1111122,1111122' 
COMPS,ioos:station:USF.COMPS:FHP:1,2014-02-01T07:42:00Z,28.1530,-82.8010,10.0,5.8,130.05,8.13,'1111122,1111122,1111122' 
COMPS,ioos:station:USF.COMPS:FHP:1,2014-02-01T07:48:00Z,28.1530,-82.8010,10.0,5.0,134.22,6.37,'1111122,1111122,1111122' 
COMPS,ioos:station:USF.COMPS:FHP:1,2014-02-01T07:54:00Z,28.1530,-82.8010,10.0,5.46,127.59,6.85,'1111122,1111122,1111122' 
COMPS,ioos:station:USF.COMPS:FHP:1,2014-02-01T08:00:00Z,28.1530,-82.8010,10.0,4.12,127.05,5.97,'1111122,1111122,1111122' 
COMPS,ioos:station:USF.COMPS:FHP:1,2014-02-01T08:06:00Z,28.1530,-82.8010,10.0,2.91,122.26,4.11,'1111122,1111122,1111122' 
COMPS,ioos:station:USF.COMPS:FHP:1,2014-02-01T08:12:00Z,28.1530,-82.8010,10.0,2.22,119.02,2.84,'1111122,1111122,1111122' 
COMPS,ioos:station:USF.COMPS:FHP:1,2014-02-01T08:18:00Z,28.1530,-82.8010,10.0,0.89,87.3,1.96,'1111122,1111122,1111122' 
COMPS,ioos:station:USF.COMPS:FHP:1,2014-02-01T08:24:00Z,28.1530,-82.8010,10.0,0.42,353.76,1.27,'1111122,1111122,1111122' 
COMPS,ioos:station:USF.COMPS:FHP:1,2014-02-01T08:30:00Z,28.1530,-82.8010,10.0,0.41,341.85,0.97,'1111122,1111122,1111122' 
COMPS,ioos:station:USF.COMPS:FHP:1,2014-02-01T08:36:00Z,28.1530,-82.8010,10.0,0.4,340.52,0.88,'1111122,1111122,1111122' 
COMPS,ioos:station:USF.COMPS:FHP:1,2014-02-01T08:42:00Z,28.1530,-82.8010,10.0,1.03,320.44,1.17,'1111122,1111122,1111122' 
COMPS,ioos:station:USF.COMPS:FHP:1,2014-02-01T08:48:00Z,28.1530,-82.8010,10.0,1.28,330.83,1.47,'1111122,1111122,1111122' 
COMPS,ioos:station:USF.COMPS:FHP:1,2014-02-01T08:54:00Z,28.1530,-82.8010,10.0,1.75,321.93,2.05,'1111122,1111122,1111122' 
COMPS,ioos:station:USF.COMPS:FHP:1,2014-02-01T09:00:00Z,28.1530,-82.8010,10.0,1.57,305.97,1.96,'1111122,1111122,1111122' 
COMPS,ioos:station:USF.COMPS:FHP:1,2014-02-01T09:06:00Z,28.1530,-82.8010,10.0,1.47,243.12,2.25,'1111122,1111122,1111122' 
COMPS,ioos:station:USF.COMPS:FHP:1,2014-02-01T09:12:00Z,28.1530,-82.8010,10.0,1.47,173.12,2.94,'1111122,1111122,1111122' 
COMPS,ioos:station:USF.COMPS:FHP:1,2014-02-01T09:18:00Z,28.1530,-82.8010,10.0,0.63,195.85,1.37,'1111122,1111122,1111122' 
COMPS,ioos:station:USF.COMPS:FHP:1,2014-02-01T09:24:00Z,28.1530,-82.8010,10.0,1.11,165.41,1.66,'1111122,1111122,1111122' 
COMPS,ioos:station:USF.COMPS:FHP:1,2014-02-01T09:30:00Z,28.1530,-82.8010,10.0,0.97,146.8,1.37,'1111122,1111122,1111122' 
COMPS,ioos:station:USF.COMPS:FHP:1,2014-02-01T09:36:00Z,28.1530,-82.8010,10.0,1.21,151.01,1.66,'1111122,1111122,1111122' 
COMPS,ioos:station:USF.COMPS:FHP:1,2014-02-01T09:42:00Z,28.1530,-82.8010,10.0,1.51,150.0,2.35,'1111122,1111122,1111122' 
COMPS,ioos:station:USF.COMPS:FHP:1,2014-02-01T09:48:00Z,28.1530,-82.8010,10.0,2.35,144.47,3.23,'1111122,1111122,1111122' 
COMPS,ioos:station:USF.COMPS:FHP:1,2014-02-01T09:54:00Z,28.1530,-82.8010,10.0,3.33,142.71,4.01,'1111122,1111122,1111122' 
COMPS,ioos:station:USF.COMPS:FHP:1,2014-02-01T10:00:00Z,28.1530,-82.8010,10.0,3.34,133.99,3.72,'1111122,1111122,1111122' 
COMPS,ioos:station:USF.COMPS:FHP:1,2014-02-01T10:06:00Z,28.1530,-82.8010,10.0,3.16,138.04,4.01,'1111122,1111122,1111122' 
COMPS,ioos:station:USF.COMPS:FHP:1,2014-02-01T10:12:00Z,28.1530,-82.8010,10.0,2.71,134.36,3.43,'1111122,1111122,1111122' 
COMPS,ioos:station:USF.COMPS:FHP:1,2014-02-01T10:18:00Z,28.1530,-82.8010,10.0,2.52,130.58,2.94,'1111122,1111122,1111122' 
COMPS,ioos:station:USF.COMPS:FHP:1,2014-02-01T10:24:00Z,28.1530,-82.8010,10.0,2.51,131.04,3.13,'1111122,1111122,1111122' 
COMPS,ioos:station:USF.COMPS:FHP:1,2014-02-01T10:30:00Z,28.1530,-82.8010,10.0,2.72,134.12,3.52,'1111122,1111122,1111122' 
COMPS,ioos:station:USF.COMPS:FHP:1,2014-02-01T10:36:00Z,28.1530,-82.8010,10.0,2.47,139.72,3.52,'1111122,1111122,1111122' 
COMPS,ioos:station:USF.COMPS:FHP:1,2014-02-01T10:42:00Z,28.1530,-82.8010,10.0,1.87,142.02,2.64,'1111122,1111122,1111122' 
COMPS,ioos:station:USF.COMPS:FHP:1,2014-02-01T10:48:00Z,28.1530,-82.8010,10.0,0.57,147.64,1.37,'1111122,1111122,1111122' 
COMPS,ioos:station:USF.COMPS:FHP:1,2014-02-01T10:54:00Z,28.1530,-82.8010,10.0,0.74,268.52,1.56,'1111122,1111122,1111122' 
COMPS,ioos:station:USF.COMPS:FHP:1,2014-02-01T11:00:00Z,28.1530,-82.8010,10.0,0.28,110.54,0.78,'1111122,1111122,1111122' 
COMPS,ioos:station:USF.COMPS:FHP:1,2014-02-01T11:06:00Z,28.1530,-82.8010,10.0,0.64,140.43,1.07,'1111122,1111122,1111122' 
COMPS,ioos:station:USF.COMPS:FHP:1,2014-02-01T11:12:00Z,28.1530,-82.8010,10.0,0.63,192.91,1.56,'1111122,1111122,1111122' 
COMPS,ioos:station:USF.COMPS:FHP:1,2014-02-01T11:18:00Z,28.1530,-82.8010,10.0,1.28,317.32,2.35,'1111122,1111122,1111122' 
COMPS,ioos:station:USF.COMPS:FHP:1,2014-02-01T11:24:00Z,28.1530,-82.8010,10.0,0.31,341.83,0.68,'1111122,1111122,1111122' 
COMPS,ioos:station:USF.COMPS:FHP:1,2014-02-01T11:30:00Z,28.1530,-82.8010,10.0,0.71,79.68,1.17,'1111122,1111122,1111122' 
COMPS,ioos:station:USF.COMPS:FHP:1,2014-02-01T11:36:00Z,28.1530,-82.8010,10.0,1.08,99.35,2.15,'1111122,1111122,1111122' 
COMPS,ioos:station:USF.COMPS:FHP:1,2014-02-01T11:42:00Z,28.1530,-82.8010,10.0,1.51,98.43,2.25,'1111122,1111122,1111122' 
COMPS,ioos:station:USF.COMPS:FHP:1,2014-02-01T11:48:00Z,28.1530,-82.8010,10.0,1.38,109.63,2.25,'1111122,1111122,1111122' 
COMPS,ioos:station:USF.COMPS:FHP:1,2014-02-01T11:54:00Z,28.1530,-82.8010,10.0,1.59,104.84,2.35,'1111122,1111122,1111122' 
COMPS,ioos:station:USF.COMPS:FHP:1,2014-02-01T12:00:00Z,28.1530,-82.8010,10.0,2.04,91.36,2.84,'1111122,1111122,1111122' 
COMPS,ioos:station:USF.COMPS:FHP:1,2014-02-01T12:06:00Z,28.1530,-82.8010,10.0,1.81,102.05,3.72,'1111122,1111122,1111122' 
COMPS,ioos:station:USF.COMPS:FHP:1,2014-02-01T12:12:00Z,28.1530,-82.8010,10.0,2.08,122.72,2.74,'1111122,1111122,1111122' 
COMPS,ioos:station:USF.COMPS:FHP:1,2014-02-01T12:18:00Z,28.1530,-82.8010,10.0,1.61,121.47,2.64,'1111122,1111122,1111122' 
COMPS,ioos:station:USF.COMPS:FHP:1,2014-02-01T12:24:00Z,28.1530,-82.8010,10.0,0.89,100.27,1.76,'1111122,1111122,1111122' 
COMPS,ioos:station:USF.COMPS:FHP:1,2014-02-01T12:30:00Z,28.1530,-82.8010,10.0,1.94,349.96,4.21,'1111122,1111122,1111122' 
COMPS,ioos:station:USF.COMPS:FHP:1,2014-02-01T12:36:00Z,28.1530,-82.8010,10.0,1.82,355.76,3.92,'1111122,1111122,1111122' 
COMPS,ioos:station:USF.COMPS:FHP:1,2014-02-01T12:42:00Z,28.1530,-82.8010,10.0,0.47,140.03,1.76,'1111122,1111122,1111122' 
COMPS,ioos:station:USF.COMPS:FHP:1,2014-02-01T12:48:00Z,28.1530,-82.8010,10.0,2.6,307.54,4.9,'1111122,1111122,1111122' 
COMPS,ioos:station:USF.COMPS:FHP:1,2014-02-01T12:54:00Z,28.1530,-82.8010,10.0,4.28,328.95,5.58,'1111122,1111122,1111122' 
COMPS,ioos:station:USF.COMPS:FHP:1,2014-02-01T13:00:00Z,28.1530,-82.8010,10.0,2.82,331.63,3.43,'1111122,1111122,1111122' 
COMPS,ioos:station:USF.COMPS:FHP:1,2014-02-01T13:06:00Z,28.1530,-82.8010,10.0,1.77,336.5,2.45,'1111122,1111122,1111122' 
COMPS,ioos:station:USF.COMPS:FHP:1,2014-02-01T13:12:00Z,28.1530,-82.8010,10.0,0.43,341.68,0.88,'1111122,1111122,1111122' 
COMPS,ioos:station:USF.COMPS:FHP:1,2014-02-01T13:18:00Z,28.1530,-82.8010,10.0,0.95,317.83,1.66,'1111122,1111122,1111122' 
COMPS,ioos:station:USF.COMPS:FHP:1,2014-02-01T13:24:00Z,28.1530,-82.8010,10.0,1.17,323.0,1.66,'1111122,1111122,1111122' 
COMPS,ioos:station:USF.COMPS:FHP:1,2014-02-01T13:30:00Z,28.1530,-82.8010,10.0,1.79,305.66,2.35,'1111122,1111122,1111122' 
COMPS,ioos:station:USF.COMPS:FHP:1,2014-02-01T13:36:00Z,28.1530,-82.8010,10.0,1.39,305.05,1.86,'1111122,1111122,1111122' 
COMPS,ioos:station:USF.COMPS:FHP:1,2014-02-01T13:42:00Z,28.1530,-82.8010,10.0,2.21,315.95,3.33,'1111122,1111122,1111122' 
COMPS,ioos:station:USF.COMPS:FHP:1,2014-02-01T13:48:00Z,28.1530,-82.8010,10.0,2.96,324.56,3.92,'1111122,1111122,1111122' 
COMPS,ioos:station:USF.COMPS:FHP:1,2014-02-01T13:54:00Z,28.1530,-82.8010,10.0,2.61,324.28,3.03,'1111122,1111122,1111122' 
COMPS,ioos:station:USF.COMPS:FHP:1,2014-02-01T14:00:00Z,28.1530,-82.8010,10.0,2.95,333.16,3.43,'1111122,1111122,1111122' 
COMPS,ioos:station:USF.COMPS:FHP:1,2014-02-01T14:06:00Z,28.1530,-82.8010,10.0,2.16,346.4,2.45,'1111122,1111122,1111122' 
COMPS,ioos:station:USF.COMPS:FHP:1,2014-02-01T14:12:00Z,28.1530,-82.8010,10.0,2.05,359.28,2.25,'1111122,1111122,1111122' 
COMPS,ioos:station:USF.COMPS:FHP:1,2014-02-01T14:18:00Z,28.1530,-82.8010,10.0,2.21,7.33,2.45,'1111122,1111122,1111122' 
COMPS,ioos:station:USF.COMPS:FHP:1,2014-02-01T14:24:00Z,28.1530,-82.8010,10.0,2.0,4.96,2.15,'1111122,1111122,1111122' 
COMPS,ioos:station:USF.COMPS:FHP:1,2014-02-01T14:30:00Z,28.1530,-82.8010,10.0,1.72,353.46,2.25,'1111122,1111122,1111122' 
COMPS,ioos:station:USF.COMPS:FHP:1,2014-02-01T14:36:00Z,28.1530,-82.8010,10.0,1.35,4.11,1.86,'1111122,1111122,1111122' 
COMPS,ioos:station:USF.COMPS:FHP:1,2014-02-01T14:42:00Z,28.1530,-82.8010,10.0,1.73,352.92,1.96,'1111122,1111122,1111122' 
COMPS,ioos:station:USF.COMPS:FHP:1,2014-02-01T14:48:00Z,28.1530,-82.8010,10.0,2.0,350.47,2.25,'1111122,1111122,1111122' 
COMPS,ioos:station:USF.COMPS:FHP:1,2014-02-01T14:54:00Z,28.1530,-82.8010,10.0,1.85,349.39,2.15,'1111122,1111122,1111122' 
COMPS,ioos:station:USF.COMPS:FHP:1,2014-02-01T15:00:00Z,28.1530,-82.8010,10.0,1.75,355.76,1.96,'1111122,1111122,1111122' 
COMPS,ioos:station:USF.COMPS:FHP:1,2014-02-01T15:06:00Z,28.1530,-82.8010,10.0,1.63,2.51,1.96,'1111122,1111122,1111122' 
COMPS,ioos:station:USF.COMPS:FHP:1,2014-02-01T15:12:00Z,28.1530,-82.8010,10.0,1.61,0.84,1.86,'1111122,1111122,1111122' 
COMPS,ioos:station:USF.COMPS:FHP:1,2014-02-01T15:18:00Z,28.1530,-82.8010,10.0,1.91,5.34,2.15,'1111122,1111122,1111122' 
COMPS,ioos:station:USF.COMPS:FHP:1,2014-02-01T15:24:00Z,28.1530,-82.8010,10.0,2.68,15.02,2.94,'1111122,1111122,1111122' 
COMPS,ioos:station:USF.COMPS:FHP:1,2014-02-01T15:30:00Z,28.1530,-82.8010,10.0,2.63,14.34,2.94,'1111122,1111122,1111122' 
COMPS,ioos:station:USF.COMPS:FHP:1,2014-02-01T15:36:00Z,28.1530,-82.8010,10.0,2.08,12.03,2.45,'1111122,1111122,1111122' 
COMPS,ioos:station:USF.COMPS:FHP:1,2014-02-01T15:42:00Z,28.1530,-82.8010,10.0,2.15,6.07,2.45,'1111122,1111122,1111122' 
COMPS,ioos:station:USF.COMPS:FHP:1,2014-02-01T15:48:00Z,28.1530,-82.8010,10.0,2.53,10.01,2.94,'1111122,1111122,1111122' 
COMPS,ioos:station:USF.COMPS:FHP:1,2014-02-01T15:54:00Z,28.1530,-82.8010,10.0,2.74,15.69,3.03,'1111122,1111122,1111122' 
COMPS,ioos:station:USF.COMPS:FHP:1,2014-02-01T16:00:00Z,28.1530,-82.8010,10.0,2.35,25.44,2.64,'1111122,1111122,1111122' 
COMPS,ioos:station:USF.COMPS:FHP:1,2014-02-01T16:06:00Z,28.1530,-82.8010,10.0,2.25,32.6,2.54,'1111122,1111122,1111122' 
COMPS,ioos:station:USF.COMPS:FHP:1,2014-02-01T16:12:00Z,28.1530,-82.8010,10.0,2.1,33.25,2.35,'1111122,1111122,1111122' 
COMPS,ioos:station:USF.COMPS:FHP:1,2014-02-01T16:18:00Z,28.1530,-82.8010,10.0,1.71,31.25,2.05,'1111122,1111122,1111122' 
COMPS,ioos:station:USF.COMPS:FHP:1,2014-02-01T16:24:00Z,28.1530,-82.8010,10.0,1.79,18.68,2.05,'1111122,1111122,1111122' 
COMPS,ioos:station:USF.COMPS:FHP:1,2014-02-01T16:30:00Z,28.1530,-82.8010,10.0,1.65,22.06,1.96,'1111122,1111122,1111122' 
COMPS,ioos:station:USF.COMPS:FHP:1,2014-02-01T16:36:00Z,28.1530,-82.8010,10.0,1.5,20.0,1.86,'1111122,1111122,1111122' 
COMPS,ioos:station:USF.COMPS:FHP:1,2014-02-01T16:42:00Z,28.1530,-82.8010,10.0,1.35,24.38,1.66,'1111122,1111122,1111122' 
COMPS,ioos:station:USF.COMPS:FHP:1,2014-02-01T16:48:00Z,28.1530,-82.8010,10.0,1.44,17.46,1.66,'1111122,1111122,1111122' 
COMPS,ioos:station:USF.COMPS:FHP:1,2014-02-01T16:54:00Z,28.1530,-82.8010,10.0,1.12,8.99,1.37,'1111122,1111122,1111122' 
COMPS,ioos:station:USF.COMPS:FHP:1,2014-02-01T17:00:00Z,28.1530,-82.8010,10.0,0.94,354.84,1.17,'1111122,1111122,1111122' 
COMPS,ioos:station:USF.COMPS:FHP:1,2014-02-01T17:06:00Z,28.1530,-82.8010,10.0,1.13,349.02,1.47,'1111122,1111122,1111122' 
COMPS,ioos:station:USF.COMPS:FHP:1,2014-02-01T17:12:00Z,28.1530,-82.8010,10.0,0.25,14.72,0.68,'1111122,1111122,1111122' 
COMPS,ioos:station:USF.COMPS:FHP:1,2014-02-01T17:18:00Z,28.1530,-82.8010,10.0,0.29,255.91,0.68,'1111122,1111122,1111122' 
COMPS,ioos:station:USF.COMPS:FHP:1,2014-02-01T17:24:00Z,28.1530,-82.8010,10.0,0.56,207.77,0.97,'1111122,1111122,1111122' 
COMPS,ioos:station:USF.COMPS:FHP:1,2014-02-01T17:30:00Z,28.1530,-82.8010,10.0,1.08,275.99,1.47,'1111122,1111122,1111122' 
COMPS,ioos:station:USF.COMPS:FHP:1,2014-02-01T17:36:00Z,28.1530,-82.8010,10.0,2.03,319.39,2.54,'1111122,1111122,1111122' 
COMPS,ioos:station:USF.COMPS:FHP:1,2014-02-01T17:42:00Z,28.1530,-82.8010,10.0,1.08,328.85,1.96,'1111122,1111122,1111122' 
COMPS,ioos:station:USF.COMPS:FHP:1,2014-02-01T17:48:00Z,28.1530,-82.8010,10.0,0.71,331.23,0.97,'1111122,1111122,1111122' 
COMPS,ioos:station:USF.COMPS:FHP:1,2014-02-01T17:54:00Z,28.1530,-82.8010,10.0,1.45,336.84,1.86,'1111122,1111122,1111122' 
COMPS,ioos:station:USF.COMPS:FHP:1,2014-02-01T18:00:00Z,28.1530,-82.8010,10.0,1.11,314.26,1.56,'1111122,1111122,1111122' 
COMPS,ioos:station:USF.COMPS:FHP:1,2014-02-01T18:06:00Z,28.1530,-82.8010,10.0,0.43,338.75,0.78,'1111122,1111122,1111122' 
COMPS,ioos:station:USF.COMPS:FHP:1,2014-02-01T18:12:00Z,28.1530,-82.8010,10.0,0.16,6.98,0.39,'1111122,1111122,1111122' 
COMPS,ioos:station:USF.COMPS:FHP:1,2014-02-01T18:18:00Z,28.1530,-82.8010,10.0,0.09,346.37,0.09,'1111122,1111122,1111122' 
COMPS,ioos:station:USF.COMPS:FHP:1,2014-02-01T18:24:00Z,28.1530,-82.8010,10.0,0.12,302.73,0.39,'1111122,1111122,1111122' 
COMPS,ioos:station:USF.COMPS:FHP:1,2014-02-01T18:30:00Z,28.1530,-82.8010,10.0,0.09,297.38,0.09,'1111122,1111122,1111122' 
COMPS,ioos:station:USF.COMPS:FHP:1,2014-02-01T18:36:00Z,28.1530,-82.8010,10.0,0.12,170.0,0.29,'1111122,1111122,1111122' 
COMPS,ioos:station:USF.COMPS:FHP:1,2014-02-01T18:42:00Z,28.1530,-82.8010,10.0,0.09,146.4,0.09,'1111122,1111122,1111122' 
COMPS,ioos:station:USF.COMPS:FHP:1,2014-02-01T18:48:00Z,28.1530,-82.8010,10.0,0.09,208.03,0.09,'1111122,1111122,1111122' 
COMPS,ioos:station:USF.COMPS:FHP:1,2014-02-01T18:54:00Z,28.1530,-82.8010,10.0,0.08,238.09,0.19,'1111122,1111122,1111122' 
COMPS,ioos:station:USF.COMPS:FHP:1,2014-02-01T19:00:00Z,28.1530,-82.8010,10.0,0.54,220.37,0.97,'1111122,1111122,1111122' 
COMPS,ioos:station:USF.COMPS:FHP:1,2014-02-01T19:06:00Z,28.1530,-82.8010,10.0,0.49,241.17,0.68,'1111122,1111122,1111122' 
COMPS,ioos:station:USF.COMPS:FHP:1,2014-02-01T19:12:00Z,28.1530,-82.8010,10.0,1.27,269.13,1.86,'1111122,1111122,1111122' 
COMPS,ioos:station:USF.COMPS:FHP:1,2014-02-01T19:18:00Z,28.1530,-82.8010,10.0,1.67,278.75,2.15,'1111122,1111122,1111122' 
COMPS,ioos:station:USF.COMPS:FHP:1,2014-02-01T19:24:00Z,28.1530,-82.8010,10.0,1.81,284.79,2.35,'1111122,1111122,1111122' 
COMPS,ioos:station:USF.COMPS:FHP:1,2014-02-01T19:30:00Z,28.1530,-82.8010,10.0,1.22,300.34,1.76,'1111122,1111122,1111122' 